Theta_e
353 353 354 356 356 359 357 356 354 354 349 343 339 343 345 348 348 348 342 344 343 337 344 347 346 346 346 346 344 344 345 344 343 345 340 344 345 344 346 347 349 348 349
354 361 362 360 360 359 359 356 353 351 345 339 339 339 341 347 351 351 348 347 348 347 348 347 345 345 344 343 344 344 343 342 343 339 335 339 343 345 346 347 346 348 348
360 364 364 363 361 360 358 357 354 348 344 340 342 344 341 346 345 346 347 348 348 348 346 345 343 343 343 342 342 342 343 344 343 340 343 341 340 342 345 347 346 345 347
361 361 363 360 359 358 357 355 353 346 344 342 342 346 347 348 347 348 345 344 344 347 347 345 345 345 345 344 343 343 343 343 344 343 343 343 343 340 340 346 346 345 346
361 360 357 356 358 355 357 355 352 345 343 341 339 344 348 348 348 344 345 346 346 345 343 343 345 344 344 343 343 344 342 343 343 343 342 342 342 343 341 340 342 345 347
360 359 356 354 359 356 357 355 350 347 345 350 350 353 350 347 347 345 344 346 346 345 343 343 343 343 344 343 344 344 342 342 343 342 343 342 342 341 343 340 340 341 343
358 356 354 354 350 350 354 354 348 351 351 350 352 350 349 349 348 344 345 345 345 344 343 344 344 344 345 345 343 343 341 342 342 342 342 342 342 340 341 342 340 340 343
356 355 354 350 351 349 351 351 347 351 350 353 349 349 349 346 346 344 344 344 342 344 341 342 343 343 345 346 345 345 344 342 342 342 342 342 340 340 341 342 341 340 340
354 353 352 351 350 349 349 352 351 349 353 351 349 348 347 346 344 343 342 341 341 341 340 340 342 344 345 344 344 345 345 345 343 342 341 340 337 339 342 342 343 340 339
353 352 351 351 350 347 348 349 350 353 353 349 348 347 346 343 344 343 340 340 340 339 339 339 339 341 342 342 343 343 343 342 342 343 343 342 342 342 342 342 342 342 341
352 350 349 351 349 349 352 354 353 352 350 348 348 346 346 343 343 341 340 341 339 337 338 339 338 338 338 339 340 339 339 339 340 340 340 341 342 341 340 340 341 342 342
350 348 348 350 349 348 347 344 344 350 349 348 346 347 345 342 343 342 340 339 338 337 337 337 337 336 336 335 335 335 335 335 336 337 337 337 338 339 339 340 340 341 342
349 348 348 347 348 344 338 335 338 348 349 347 347 347 346 342 342 340 339 339 338 336 335 335 336 334 334 333 333 332 332 333 333 333 333 333 334 334 335 337 338 338 339
351 349 348 348 349 342 342 336 344 349 349 348 347 348 346 344 342 341 339 338 338 336 336 335 334 334 333 332 331 331 330 330 328 329 330 330 331 332 333 334 334 334 334
355 352 353 349 350 346 343 345 348 349 347 349 347 347 347 345 343 342 340 338 337 337 337 334 332 332 332 332 331 330 329 328 327 326 326 327 329 331 331 331 332 332 331
356 356 352 350 350 349 348 349 348 347 348 348 348 347 347 344 343 342 340 337 337 337 335 334 330 331 331 331 330 329 329 328 326 326 324 323 322 323 326 329 331 331 329
356 353 348 348 347 344 348 352 351 350 350 349 348 348 347 345 344 342 340 337 336 335 334 331 327 329 329 329 330 328 328 328 327 326 324 322 322 319 322 322 324 325 327
355 349 348 348 342 349 353 353 351 351 349 346 344 345 346 347 345 343 340 338 336 334 332 330 326 326 327 327 328 327 326 325 325 323 320 319 318 316 313 314 313 313 316
349 348 348 351 353 351 350 350 348 342 339 336 335 335 336 341 347 342 340 337 335 333 331 330 327 324 324 324 327 325 325 323 321 320 319 318 320 319 318 317 314 314 313
350 349 349 347 347 348 346 341 335 334 332 331 330 330 333 338 343 342 340 337 334 333 331 328 327 322 322 322 323 327 323 319 317 316 315 318 320 321 320 319 319 316 316
343 343 342 341 342 340 338 333 331 329 328 327 327 330 333 336 340 340 338 336 333 331 328 327 323 321 320 320 322 324 324 320 317 316 314 314 315 319 320 321 319 316 316
339 339 337 337 337 335 335 329 327 326 325 324 323 325 328 331 334 337 336 334 331 327 325 322 320 318 317 318 319 320 319 317 317 315 313 312 313 313 313 313 311 309 308
336 334 333 332 332 331 330 326 325 324 322 321 321 322 324 326 327 329 329 329 327 325 321 320 317 315 315 315 316 315 316 316 315 312 306 306 307 304 306 307 307 308 307
334 332 331 329 328 327 326 325 323 322 320 319 318 319 320 319 320 322 322 323 321 320 318 316 315 314 313 312 312 311 312 311 309 307 307 307 306 306 308 308 308 306 307
334 331 328 327 326 325 325 324 323 321 319 318 317 316 316 317 316 316 315 316 316 316 316 315 315 315 313 310 309 309 310 310 307 306 306 307 307 307 308 309 308 308 307
332 329 327 326 326 324 324 324 323 322 320 318 317 316 315 314 314 314 313 313 314 314 314 314 314 314 313 311 310 310 310 310 306 307 308 309 310 311 308 307 308 306 306
Wind_Speed
14 24 23 24 26 22 20 13 14 10 12 15 7 6 6 6 9 9 11 10 12 9 10 15 17 18 18 18 19 21 20 22 23 13 10 18 33 26 30 28 27 23 22
9 15 23 25 23 18 13 14 14 9 12 9 7 7 5 5 7 9 9 9 10 10 9 11 14 15 18 17 18 20 18 18 17 7 6 4 11 23 28 30 26 25 21
15 14 19 22 20 15 14 13 8 13 13 9 6 7 7 6 6 6 6 4 6 9 12 10 12 13 15 17 18 16 17 19 17 23 13 3 4 2 8 27 27 20 20
15 11 15 21 18 15 15 12 7 10 14 13 12 6 2 4 4 4 4 6 9 11 5 14 12 12 13 15 16 15 15 17 23 16 19 19 8 3 2 5 15 16 16
16 12 13 20 19 16 18 17 11 13 12 10 6 3 1 6 5 6 8 6 9 8 13 11 11 12 12 12 12 12 13 15 18 20 13 17 19 14 3 3 4 10 15
15 12 21 20 21 19 21 17 15 14 12 7 5 3 3 3 4 8 9 12 12 14 17 13 12 11 12 13 8 8 9 10 16 15 16 14 5 3 4 2 3 1 2
13 14 12 16 22 20 21 22 18 16 11 8 7 5 2 3 3 7 11 11 13 15 16 14 13 13 12 10 7 3 4 5 10 13 15 16 16 12 8 6 3 3 2
14 12 11 18 20 20 20 18 20 14 9 10 9 6 4 11 9 11 12 11 13 13 16 13 14 13 11 8 7 6 4 1 6 10 11 11 13 10 10 6 3 1 1
14 12 12 17 20 20 19 22 20 15 13 12 8 7 6 7 8 7 10 11 13 13 16 16 17 19 17 11 6 8 6 5 4 5 7 8 9 10 8 8 10 7 2
14 12 13 16 18 21 20 18 19 20 19 14 10 7 7 7 6 7 10 11 10 12 14 16 17 19 18 19 20 20 16 13 14 10 3 3 5 7 5 5 8 12 8
15 13 14 20 21 19 18 20 19 18 18 14 11 9 8 8 9 11 12 8 13 14 13 15 18 19 20 17 18 19 17 17 16 14 13 13 8 5 3 2 3 6 6
16 15 20 22 23 19 15 9 13 12 19 16 11 12 11 10 10 11 11 8 11 12 13 14 17 18 20 21 20 18 18 17 17 15 13 13 11 11 11 10 8 7 3
14 14 16 17 19 26 21 19 21 17 18 14 13 14 11 12 10 7 10 6 8 10 11 15 18 19 20 19 19 17 18 19 17 16 16 15 14 15 12 11 9 6 6
10 11 11 12 20 25 21 25 29 22 21 15 15 13 15 13 13 10 8 7 7 8 10 12 14 16 17 19 19 18 17 18 20 18 18 16 14 13 12 13 12 10 13
6 11 9 9 20 20 21 18 18 28 21 19 18 16 17 15 16 15 11 8 8 6 9 11 11 13 14 15 16 15 16 17 18 20 21 19 17 14 13 13 12 12 15
5 11 11 13 14 17 15 12 26 26 18 14 14 16 20 18 16 15 10 9 8 6 7 7 10 14 15 12 12 13 13 12 13 15 17 20 21 19 16 15 13 11 11
8 12 9 15 15 15 11 11 20 21 16 16 15 15 14 13 13 16 13 12 11 7 10 8 10 14 13 11 10 12 13 12 12 13 11 14 12 12 11 15 16 15 14
10 11 14 20 18 11 18 22 17 15 18 15 12 9 7 9 11 19 18 14 14 10 8 7 9 11 11 10 12 12 12 12 12 13 12 13 13 13 15 16 18 19 18
14 16 21 18 24 24 20 19 21 21 19 15 11 7 2 3 5 23 21 15 15 12 10 8 8 8 8 7 10 9 7 8 13 11 9 9 11 7 9 12 14 16 17
19 20 26 26 23 16 23 26 21 19 17 10 8 7 7 6 5 20 20 15 15 15 14 13 9 6 5 5 4 9 7 11 11 8 8 7 7 10 5 4 8 7 6
22 25 23 20 18 19 21 23 18 17 12 8 8 9 8 9 11 15 15 15 18 17 14 12 8 6 4 6 8 7 6 13 10 8 7 6 5 4 4 5 4 4 2
20 24 23 17 13 16 17 18 19 12 9 10 11 11 11 11 11 14 15 14 19 18 14 11 7 5 6 6 6 7 12 12 7 6 6 6 6 6 5 6 6 5 8
18 19 23 20 17 14 12 18 14 11 11 13 13 12 12 12 13 14 14 17 17 16 13 10 7 7 7 7 7 6 5 5 4 7 9 9 8 7 7 8 10 9 14
16 17 19 16 17 13 12 16 14 12 13 14 13 13 13 13 14 14 12 13 11 10 9 7 7 6 6 7 7 7 6 7 7 7 5 4 5 7 6 4 8 7 7
16 18 19 16 14 13 13 13 14 14 17 16 15 14 13 13 15 15 13 11 9 7 7 7 7 6 5 6 6 6 4 4 4 3 1 1 4 5 5 3 3 2 6
15 16 16 17 15 14 14 13 13 13 15 19 16 14 14 13 15 17 17 13 11 8 7 6 5 4 4 5 3 2 2 0 1 1 6 10 14 6 8 4 0 1 4
Wind_Direction
147 155 169 158 153 149 146 165 146 143 156 145 131 179 315 276 298 304 301 302 300 310 284 287 292 290 285 270 254 258 253 239 236 235 264 256 253 238 238 231 233 237 234
132 102 112 130 135 134 137 142 148 163 147 159 122 147 273 277 322 320 309 315 314 302 286 288 292 293 296 288 276 266 253 252 232 195 197 299 252 234 243 243 236 234 244
130 127 128 131 136 142 148 160 139 151 166 151 133 186 225 270 323 312 320 335 298 283 284 292 310 304 298 292 287 278 257 245 236 218 190 209 223 280 274 235 226 235 242
137 138 136 131 137 144 155 163 171 171 166 169 177 214 274 321 336 24 18 343 330 316 295 311 317 313 307 294 286 280 263 241 241 229 228 234 242 171 335 183 210 238 249
143 144 133 136 152 161 171 171 160 163 173 183 203 206 292 31 85 26 25 49 48 24 353 338 328 327 322 307 285 275 266 248 236 230 218 234 248 248 172 228 236 234 243
142 138 139 146 156 160 167 160 156 164 155 147 163 153 90 49 47 43 42 24 34 14 8 4 355 344 337 330 306 261 263 252 233 235 229 226 215 215 201 183 226 206 273
129 135 146 144 146 146 149 158 160 159 152 157 154 130 116 357 42 52 39 34 22 14 7 8 9 6 358 349 349 309 273 227 219 218 224 236 243 252 260 234 179 210 231
137 143 143 146 149 154 156 161 165 160 167 154 142 128 81 79 74 60 59 43 35 21 13 17 32 28 16 16 27 24 37 113 209 223 233 242 235 242 251 266 203 301 256
142 146 133 152 153 159 164 165 169 171 163 150 140 126 103 74 59 62 54 40 37 33 34 33 41 44 48 49 59 45 35 38 323 267 254 251 245 253 260 274 256 192 175
147 141 139 155 161 169 171 169 168 167 160 150 145 144 121 82 75 63 64 53 43 38 40 44 45 50 60 67 74 70 70 71 61 54 51 340 312 291 259 268 202 219 196
148 140 139 157 170 171 173 177 178 169 159 148 152 143 148 110 91 79 68 54 55 45 46 50 59 58 54 60 70 70 69 69 66 63 61 59 47 67 97 147 192 186 207
147 144 143 164 171 149 127 90 342 173 159 147 144 136 147 122 101 84 79 63 59 56 54 60 67 63 60 55 58 65 68 67 65 61 64 53 45 57 47 46 60 78 114
149 144 144 164 158 137 131 126 186 207 156 155 157 164 160 135 113 98 79 72 62 72 63 63 66 69 68 62 61 62 69 70 68 67 68 65 59 56 54 61 64 71 80
135 134 138 151 138 151 163 171 189 170 157 163 171 171 162 149 142 131 121 95 75 75 69 73 70 74 72 70 68 65 70 71 67 65 66 67 74 74 72 75 76 86 91
121 123 113 116 127 160 171 172 180 165 170 170 180 172 170 155 147 146 137 127 96 86 86 98 80 85 78 77 76 75 72 70 70 68 71 70 71 75 77 80 81 89 99
169 111 114 112 131 141 149 135 164 162 157 157 165 169 167 154 158 156 145 134 121 113 108 93 94 98 88 84 82 84 81 82 79 88 78 75 73 72 77 82 85 87 100
187 128 139 130 152 148 161 147 133 138 119 107 111 130 165 169 169 169 163 152 135 132 107 95 105 106 102 94 96 98 100 97 96 102 89 80 78 58 74 81 84 88 95
183 143 137 145 161 162 143 127 130 118 109 104 105 118 108 135 169 174 165 152 151 144 132 112 109 117 113 102 118 119 110 105 97 93 88 83 83 74 78 85 84 82 80
130 144 151 146 142 131 126 121 122 115 111 98 78 61 45 147 167 175 169 158 150 148 140 136 118 129 120 98 123 132 118 116 104 103 92 94 81 99 77 82 87 83 79
110 105 120 118 105 109 127 118 109 105 89 79 72 65 68 90 141 174 167 158 152 149 150 132 135 135 124 110 87 155 131 112 112 94 93 101 81 72 167 102 98 99 84
93 98 89 90 98 117 123 111 103 90 95 89 87 85 88 95 125 159 154 151 153 154 146 143 137 127 120 108 82 119 164 146 127 95 103 94 91 86 86 100 105 92 84
86 93 93 86 92 109 112 100 95 102 96 95 94 95 94 96 114 139 149 149 150 146 145 138 121 105 98 104 95 85 110 141 128 90 98 94 87 78 70 95 86 23 343
108 114 106 92 92 97 109 107 111 115 109 102 97 98 101 101 106 110 125 140 148 141 138 134 116 105 94 88 92 90 114 110 97 98 96 96 84 76 91 63 37 37 46
127 123 120 109 98 107 117 128 136 134 122 111 108 105 104 105 107 110 114 121 121 127 138 138 128 112 103 97 96 95 94 94 106 111 113 120 112 114 110 75 40 45 49
125 125 120 119 123 130 132 141 141 134 127 120 115 109 109 110 106 103 102 107 110 119 134 132 132 131 127 122 112 100 89 84 120 122 98 318 297 288 275 242 131 102 51
116 123 132 141 143 141 139 143 147 145 140 127 125 126 121 118 112 111 107 101 100 107 120 131 142 137 140 150 140 133 130 188 193 321 331 329 314 313 92 71 274 178 136